Wind_Speed
33 32 29 26 23 23 23 26 27 22 18 17 14 24 26 26 20 21 16 14 7 5 3 3 2 2 5 6 7 7 8 9 8 8 8 9 10 11 12 12 11 11 11 11 11 10 10 10 10
34 32 30 26 24 21 23 31 28 27 25 19 20 30 30 25 21 23 21 17 11 12 10 8 7 7 8 9 9 10 11 10 9 10 10 11 11 11 12 12 12 12 12 13 13 13 13 12 12
37 34 32 28 25 21 23 26 33 31 29 27 23 32 34 31 25 26 24 23 22 20 18 17 14 12 11 11 13 12 13 13 12 11 12 13 14 13 14 14 13 13 13 14 14 15 15 14 14
40 37 34 29 26 22 24 30 37 34 30 22 32 33 32 36 29 28 29 25 26 25 23 21 18 17 15 14 14 15 15 16 16 16 14 14 13 13 14 15 15 15 14 14 16 16 17 17 15
40 39 37 31 27 28 31 37 40 37 37 27 31 33 30 28 29 27 26 24 26 28 27 25 23 21 20 19 17 17 17 17 17 18 18 17 16 17 17 18 17 17 16 16 18 19 18 19 18
39 41 38 32 30 31 31 39 40 39 37 34 35 35 39 39 34 31 25 23 26 28 29 29 27 26 25 25 24 22 21 20 19 19 19 17 17 18 19 19 20 21 21 21 21 21 22 22 21
42 42 37 36 33 34 31 35 41 46 41 41 38 39 39 37 32 28 25 23 23 26 26 26 27 27 27 27 27 25 23 23 20 18 17 19 19 18 18 20 20 21 21 21 21 22 23 24 24
40 43 41 38 35 26 30 36 42 45 36 32 43 42 38 39 38 32 23 19 17 27 27 29 30 31 30 30 29 28 26 24 23 23 22 24 24 24 25 26 24 23 25 23 22 22 22 24 24
43 40 34 37 38 29 33 36 38 39 41 39 35 36 40 40 42 37 32 29 29 34 36 37 38 37 34 33 33 31 29 29 29 28 27 27 28 28 28 28 26 26 26 27 28 27 26 25 26
44 40 32 34 35 40 43 41 36 38 42 42 43 42 44 46 44 44 42 40 34 30 31 32 30 31 32 33 34 34 34 36 35 35 34 33 31 29 28 30 31 30 30 31 30 31 30 29 30
48 42 39 37 35 38 44 46 43 44 42 44 42 43 41 41 40 40 47 45 37 33 31 33 32 31 32 31 31 32 33 37 38 38 39 40 36 34 34 35 35 36 35 35 34 35 33 31 32
47 45 46 44 44 46 47 50 50 49 47 49 48 43 40 40 43 45 43 47 42 41 38 34 35 34 33 38 34 31 32 27 36 38 44 40 41 39 40 38 41 42 41 40 40 36 36 35 34
41 40 39 40 45 50 53 55 53 50 48 49 48 47 44 43 42 43 47 48 43 41 43 43 37 36 37 36 35 34 36 33 35 32 35 38 43 43 40 46 43 42 44 43 43 38 39 36 39
36 37 39 38 40 43 47 48 49 45 46 44 42 44 42 42 43 42 44 48 45 46 45 46 47 43 37 35 39 35 41 37 36 35 37 39 43 43 47 45 42 42 41 41 42 41 42 41 40
40 40 40 40 41 43 46 44 40 36 36 42 43 43 44 44 44 44 47 47 46 46 49 47 46 45 41 36 34 37 39 37 41 36 36 40 40 42 46 43 41 40 41 41 39 38 39 38 39
34 34 35 37 37 40 43 41 37 32 40 41 42 45 45 42 41 40 42 42 42 44 44 44 43 43 42 39 36 36 35 37 40 35 40 37 37 41 44 42 40 40 41 41 38 37 38 38 39
33 33 30 24 28 28 35 36 33 34 37 37 39 40 40 38 35 35 38 39 39 38 36 39 40 41 40 40 39 39 38 36 35 34 39 43 42 44 48 46 44 42 41 42 40 41 43 43 42
28 29 26 25 28 32 32 37 35 32 34 35 38 36 35 32 32 35 36 35 35 36 38 40 42 43 43 42 42 44 43 40 38 41 43 44 45 45 47 49 46 45 44 44 45 45 46 46 46
30 32 29 29 27 35 36 38 36 37 36 37 37 37 35 33 33 33 33 37 38 40 41 42 44 45 46 44 43 44 45 45 45 46 44 45 44 46 47 49 48 46 46 47 51 48 47 47 47
33 35 35 34 36 40 37 37 37 39 40 37 37 35 31 33 35 37 36 38 40 44 45 47 50 51 48 46 49 50 48 49 50 50 49 49 47 42 44 46 44 49 50 55 49 47 47 49 49
37 37 37 39 38 42 43 40 38 38 39 39 37 30 31 37 39 38 36 37 40 44 48 50 48 44 38 35 36 39 40 39 39 40 42 44 46 43 45 47 48 53 45 49 53 49 50 48 48
34 33 34 34 39 41 41 41 41 42 42 40 37 34 34 33 30 31 35 38 40 40 40 40 39 35 32 32 33 44 45 43 41 43 44 45 46 48 48 48 48 52 55 45 47 50 47 52 50
39 38 41 40 40 40 36 45 43 41 43 39 43 42 38 38 38 36 38 41 42 41 42 42 40 39 38 37 40 43 44 47 49 48 49 49 50 52 53 54 53 54 50 42 44 52 56 47 52
43 41 41 41 42 44 38 39 42 33 35 41 39 42 41 37 38 41 43 44 42 40 39 38 37 39 40 39 39 44 46 47 49 50 52 53 54 55 56 58 59 56 55 49 50 50 46 57 58
37 39 38 39 37 39 35 37 41 27 37 38 39 42 43 33 37 39 40 44 45 45 46 44 41 40 42 43 49 48 48 48 47 48 53 55 56 58 60 60 61 62 60 55 53 55 55 56 46
34 36 38 42 41 37 34 42 37 32 35 34 38 43 38 36 36 40 43 47 49 51 51 50 48 46 46 49 50 50 50 51 52 52 52 55 57 58 60 62 63 64 65 63 58 60 58 59 59
39 41 44 46 46 42 38 32 30 32 37 39 38 42 47 41 40 47 47 49 54 57 57 56 54 51 51 56 57 56 53 55 59 61 60 60 61 61 62 63 65 65 66 67 68 66 62 59 59
26 27 36 36 36 34 31 27 24 27 30 33 39 47 51 52 47 50 53 56 57 55 56 55 55 56 62 66 60 60 61 61 60 62 63 69 69 67 66 66 67 68 69 69 68 70 69 67 64
24 23 28 28 31 34 33 26 27 29 30 32 37 39 41 46 46 52 60 63 67 56 51 54 57 63 65 63 67 67 67 66 64 63 63 67 70 72 73 71 70 70 71 72 72 72 71 69 67
25 29 30 33 34 35 38 35 36 39 39 41 43 44 43 51 49 47 44 49 57 61 58 55 58 62 64 67 70 70 69 69 69 65 64 64 63 67 69 72 73 71 71 70 70 72 69 70 68
Wind_Direction
209 207 211 211 202 190 182 179 185 207 215 216 231 207 214 226 240 249 269 291 227 209 254 303 289 302 324 325 315 316 315 316 318 321 325 329 335 340 337 333 330 326 323 319 322 323 324 322 315
212 208 208 208 201 197 189 202 193 209 216 195 238 221 221 228 238 245 250 261 251 261 277 281 271 276 289 296 299 299 304 307 303 306 312 316 317 318 321 325 326 328 328 325 323 323 320 323 325
211 212 209 204 203 200 204 205 207 209 221 210 234 229 228 233 228 240 247 264 271 272 279 281 280 277 276 282 289 288 292 291 291 296 301 300 302 307 306 306 309 314 316 316 317 319 321 322 325
210 213 211 201 201 204 198 209 212 211 217 235 238 236 235 230 229 232 239 256 262 267 270 272 276 278 278 277 280 286 289 290 288 285 290 293 292 293 298 299 300 300 305 310 310 314 317 319 320
210 213 211 200 203 211 206 206 211 221 219 227 251 239 235 223 225 235 246 250 255 263 271 273 274 278 280 277 276 279 279 279 283 287 288 288 289 292 292 292 293 293 294 297 300 304 307 310 312
205 212 212 203 204 211 216 214 212 217 234 226 246 255 253 249 252 251 242 258 262 263 267 271 273 274 272 272 274 270 272 275 280 282 284 287 284 282 286 288 291 292 295 296 297 300 303 304 305
205 210 207 204 205 222 213 220 217 218 228 232 234 245 249 251 252 250 255 270 268 263 262 266 269 269 271 272 270 268 271 268 269 273 278 281 282 284 287 292 293 289 287 291 295 298 298 299 300
217 211 207 205 204 205 223 229 227 226 230 240 230 239 254 258 253 248 247 252 259 265 264 271 273 270 268 268 269 271 270 268 265 268 271 276 280 282 282 284 285 285 289 287 288 289 291 292 293
223 222 219 208 205 199 210 223 238 241 246 248 255 263 261 261 265 271 252 254 249 252 256 261 262 263 268 269 269 268 267 267 269 269 270 270 271 272 273 275 275 276 276 282 284 286 287 283 284
246 239 227 217 221 214 219 220 222 238 244 247 252 258 269 274 280 282 279 270 265 261 260 255 259 260 263 266 271 276 281 282 276 273 272 269 266 269 269 271 272 272 271 275 275 276 285 281 283
238 243 243 238 236 239 243 233 232 237 245 254 255 258 259 273 276 282 286 286 286 276 266 268 270 271 270 262 259 267 273 274 273 273 273 269 268 268 266 267 273 274 274 277 274 272 274 278 280
233 235 237 239 239 235 239 246 250 249 248 254 259 264 268 268 267 271 270 277 282 279 272 266 268 271 261 264 267 260 268 265 269 273 275 269 268 271 268 265 275 276 273 273 272 269 269 269 267
231 234 235 233 237 239 240 242 243 249 254 256 261 265 261 263 266 271 275 275 274 275 277 277 267 267 270 257 265 268 263 270 262 262 262 271 264 269 266 265 271 272 271 274 274 273 271 272 272
232 232 233 232 234 237 239 240 243 245 253 255 254 254 254 257 258 256 262 267 271 273 271 273 275 273 265 265 267 266 265 268 262 261 262 262 266 270 274 273 272 272 272 272 269 271 272 269 270
234 235 235 235 239 242 244 246 247 246 252 252 253 254 253 251 253 255 257 259 262 262 265 266 267 269 272 265 263 260 260 268 269 254 264 253 262 267 267 268 268 271 272 270 268 268 270 273 273
236 239 238 239 241 247 253 254 256 254 245 248 250 251 253 254 252 251 250 252 255 255 260 264 267 270 272 271 268 262 258 257 262 257 263 262 263 267 269 268 268 267 267 268 275 276 273 268 268
231 237 239 244 238 233 237 244 244 244 247 246 248 250 251 249 247 245 247 250 253 257 260 261 262 265 266 266 263 261 256 257 263 259 262 268 268 265 266 267 267 267 268 269 272 272 270 269 268
238 237 235 232 227 223 224 232 235 237 243 240 242 244 246 243 244 247 247 248 251 255 258 261 262 263 262 262 264 267 268 266 260 261 262 263 263 263 266 266 264 265 268 268 267 266 266 264 265
233 235 231 233 233 239 234 235 237 237 235 240 242 245 250 254 254 253 255 257 255 255 255 257 258 260 262 264 264 269 274 276 276 274 272 269 265 265 264 263 263 265 266 264 264 265 266 268 268
242 241 238 234 226 240 237 241 244 248 248 249 254 256 258 256 257 259 259 260 261 260 258 259 260 260 263 267 271 270 266 267 270 271 271 270 270 265 267 268 266 263 266 267 260 261 265 268 270
239 240 243 244 238 242 245 246 242 246 250 255 260 268 275 277 273 268 267 263 257 255 259 262 265 269 273 273 272 270 266 263 264 264 264 266 267 265 265 267 269 269 270 271 263 259 256 257 264
247 251 249 248 252 248 249 254 249 251 256 265 279 286 278 270 266 262 260 261 261 257 257 261 265 268 261 256 261 262 263 265 263 263 262 260 263 267 267 267 268 263 258 264 270 268 264 266 267
245 239 243 250 252 256 247 257 258 255 268 273 266 263 253 254 258 255 258 259 263 269 270 271 271 270 267 259 254 261 268 269 271 268 266 266 266 266 268 269 268 270 271 272 269 268 269 263 266
253 255 257 255 254 258 259 254 252 256 252 250 256 265 268 271 270 271 272 272 271 270 270 271 275 277 278 274 265 260 261 263 265 266 267 269 270 270 270 270 271 269 269 268 269 267 269 268 277
253 257 260 262 263 265 264 263 269 267 268 270 267 267 269 263 256 258 260 266 270 272 274 276 278 281 286 289 289 282 274 267 264 267 269 268 268 269 270 270 271 273 272 271 267 268 267 270 271
252 256 262 268 269 271 275 275 282 277 268 264 260 268 266 265 257 254 261 263 266 271 275 279 283 284 287 292 288 283 281 282 277 274 269 267 267 267 268 270 271 273 274 273 270 269 268 268 270
256 259 268 274 278 280 276 268 275 266 261 262 260 262 267 259 264 264 263 264 267 268 272 276 281 281 282 285 280 278 282 286 285 281 275 270 269 268 267 267 268 269 269 270 272 271 268 269 270
255 253 259 263 268 271 279 281 270 264 263 265 264 259 259 263 256 256 261 265 267 269 272 273 273 273 278 277 278 278 278 278 277 276 277 277 274 269 266 266 266 266 266 267 269 270 271 271 269
265 258 257 264 265 274 278 274 274 269 263 257 253 255 259 267 269 263 260 260 262 273 273 271 271 270 270 271 275 277 281 279 276 274 271 269 270 272 272 267 264 263 263 263 264 265 268 269 269
264 270 271 269 269 272 274 273 271 267 264 264 264 264 258 248 256 260 268 267 265 263 268 269 269 271 272 274 278 277 278 280 280 278 275 272 267 265 265 267 266 262 261 261 262 263 264 265 266
Height
5880 5882 5888 5893 5901 5903 5906 5908 5904 5908 5910 5911 5908 5913 5915 5917 5921 5924 5924 5925 5924 5925 5925 5925 5924 5925 5925 5926 5927 5927 5927 5927 5926 5926 5925 5924 5924 5923 5923 5922 5920 5920 5918 5917 5915 5914 5913 5911 5909
5875 5879 5884 5891 5897 5900 5901 5899 5904 5904 5907 5909 5904 5905 5911 5914 5918 5919 5922 5924 5925 5924 5924 5924 5924 5925 5925 5925 5925 5926 5926 5926 5926 5925 5925 5925 5924 5923 5922 5921 5920 5919 5918 5917 5915 5913 5912 5909 5907
5871 5876 5879 5886 5892 5897 5897 5900 5900 5900 5901 5903 5902 5902 5909 5913 5914 5916 5919 5920 5922 5922 5922 5922 5923 5923 5923 5923 5924 5924 5924 5925 5924 5924 5924 5923 5923 5922 5921 5920 5919 5917 5916 5915 5914 5913 5911 5909 5907
5866 5871 5876 5884 5889 5891 5892 5892 5894 5897 5898 5899 5896 5899 5903 5908 5912 5912 5915 5917 5917 5918 5919 5920 5921 5922 5921 5921 5922 5922 5922 5922 5922 5922 5922 5921 5921 5920 5920 5919 5917 5916 5915 5913 5912 5911 5910 5909 5907
5861 5867 5872 5880 5886 5886 5884 5885 5889 5893 5893 5898 5892 5894 5894 5900 5906 5909 5913 5914 5914 5915 5916 5917 5917 5918 5918 5918 5918 5918 5919 5918 5919 5919 5919 5919 5919 5919 5918 5917 5915 5914 5913 5912 5911 5909 5908 5907 5906
5856 5862 5869 5877 5881 5879 5882 5883 5885 5888 5887 5893 5889 5889 5891 5895 5900 5904 5911 5911 5911 5912 5913 5913 5913 5913 5913 5913 5914 5915 5915 5915 5915 5915 5916 5916 5916 5916 5916 5915 5915 5914 5912 5911 5910 5908 5907 5905 5904
5852 5856 5865 5871 5875 5873 5880 5880 5881 5882 5882 5884 5884 5884 5887 5890 5896 5900 5905 5905 5906 5908 5909 5909 5909 5909 5909 5909 5909 5909 5910 5910 5911 5911 5912 5912 5912 5912 5911 5911 5911 5910 5910 5909 5908 5907 5906 5904 5902
5848 5851 5858 5865 5870 5874 5875 5875 5877 5878 5878 5878 5883 5883 5884 5883 5887 5896 5902 5904 5904 5901 5902 5902 5903 5904 5904 5904 5904 5905 5905 5906 5906 5907 5907 5908 5908 5908 5908 5907 5906 5905 5905 5904 5903 5902 5901 5900 5900
5840 5847 5857 5863 5866 5872 5867 5868 5869 5873 5873 5875 5875 5876 5878 5881 5879 5884 5895 5900 5901 5898 5897 5897 5897 5898 5898 5899 5900 5900 5900 5901 5902 5902 5902 5902 5902 5902 5902 5902 5901 5901 5900 5899 5898 5898 5896 5895 5894
5834 5844 5852 5858 5858 5860 5857 5861 5865 5867 5866 5871 5874 5877 5876 5873 5874 5875 5879 5886 5891 5894 5893 5892 5892 5893 5894 5895 5896 5897 5898 5898 5897 5897 5896 5896 5895 5895 5895 5895 5895 5894 5894 5894 5893 5892 5891 5891 5891
5832 5838 5842 5848 5851 5853 5853 5859 5859 5860 5864 5865 5869 5869 5873 5874 5874 5875 5867 5869 5878 5883 5887 5884 5885 5887 5888 5889 5889 5890 5890 5891 5891 5890 5890 5889 5889 5889 5889 5889 5889 5888 5887 5887 5887 5886 5886 5886 5887
5826 5832 5836 5842 5844 5846 5849 5850 5852 5855 5858 5858 5862 5867 5867 5867 5868 5866 5870 5865 5866 5870 5875 5879 5877 5877 5879 5881 5881 5881 5883 5882 5883 5883 5883 5884 5883 5883 5883 5883 5882 5882 5882 5880 5879 5879 5879 5879 5878
5819 5825 5829 5835 5836 5838 5840 5842 5847 5848 5852 5856 5858 5861 5864 5860 5861 5859 5856 5857 5861 5861 5861 5861 5868 5871 5870 5872 5874 5874 5874 5874 5874 5875 5876 5877 5877 5876 5875 5874 5874 5874 5875 5875 5874 5872 5873 5873 5872
5813 5816 5819 5824 5827 5829 5830 5834 5838 5845 5844 5849 5850 5850 5852 5853 5854 5854 5853 5852 5855 5852 5852 5853 5854 5858 5862 5864 5865 5865 5865 5865 5867 5868 5868 5867 5869 5869 5868 5868 5867 5866 5866 5867 5866 5865 5865 5865 5865
5804 5809 5813 5817 5820 5819 5819 5825 5832 5839 5839 5838 5839 5841 5842 5845 5844 5845 5844 5846 5848 5847 5845 5847 5847 5848 5851 5855 5857 5858 5859 5857 5859 5859 5860 5858 5860 5859 5859 5860 5858 5857 5856 5855 5855 5856 5857 5857 5856
5799 5803 5806 5809 5814 5816 5815 5820 5823 5826 5826 5827 5829 5830 5833 5836 5836 5836 5836 5837 5837 5840 5840 5840 5839 5839 5842 5844 5847 5848 5850 5851 5851 5850 5851 5854 5853 5851 5849 5850 5849 5848 5847 5846 5848 5848 5847 5847 5846
5792 5795 5801 5808 5806 5806 5806 5810 5815 5814 5816 5818 5819 5822 5824 5827 5828 5828 5827 5830 5832 5832 5832 5833 5834 5833 5834 5835 5836 5838 5840 5842 5842 5841 5844 5844 5843 5842 5840 5839 5839 5839 5839 5839 5840 5839 5838 5837 5839
5788 5790 5794 5796 5795 5794 5795 5799 5803 5803 5806 5809 5809 5812 5814 5818 5821 5820 5820 5822 5823 5824 5823 5823 5823 5823 5825 5827 5827 5827 5828 5832 5834 5836 5838 5838 5833 5830 5828 5827 5828 5828 5827 5830 5829 5828 5827 5828 5829
5780 5781 5786 5790 5789 5788 5788 5791 5793 5795 5795 5798 5801 5803 5806 5808 5811 5812 5811 5811 5814 5815 5816 5815 5814 5814 5815 5818 5820 5821 5821 5820 5821 5823 5825 5824 5822 5821 5819 5818 5816 5816 5817 5816 5815 5816 5817 5819 5821
5774 5775 5777 5779 5782 5780 5781 5784 5786 5786 5786 5788 5791 5794 5797 5798 5800 5801 5802 5801 5802 5802 5803 5802 5802 5804 5808 5812 5812 5813 5814 5814 5814 5813 5810 5808 5809 5810 5806 5805 5806 5806 5809 5807 5804 5803 5802 5803 5805
5766 5767 5771 5773 5775 5774 5774 5777 5778 5779 5779 5781 5783 5788 5791 5790 5790 5791 5790 5789 5789 5791 5791 5791 5794 5798 5800 5801 5801 5800 5800 5802 5803 5803 5801 5798 5796 5799 5798 5796 5796 5792 5793 5795 5795 5794 5791 5790 5792
5760 5764 5765 5767 5767 5770 5770 5770 5773 5774 5775 5777 5781 5782 5780 5779 5780 5780 5779 5779 5779 5781 5784 5785 5788 5791 5793 5793 5791 5788 5789 5790 5792 5790 5790 5789 5786 5784 5785 5785 5784 5782 5780 5782 5786 5783 5781 5782 5782
5752 5754 5755 5758 5760 5762 5768 5762 5767 5772 5772 5774 5772 5771 5770 5770 5770 5771 5770 5769 5770 5771 5773 5775 5777 5779 5782 5784 5783 5780 5780 5778 5777 5778 5777 5776 5774 5771 5769 5769 5770 5768 5771 5774 5777 5775 5772 5769 5769
5745 5749 5750 5751 5752 5751 5757 5758 5758 5763 5760 5759 5762 5762 5763 5766 5763 5761 5760 5760 5762 5762 5763 5763 5764 5765 5766 5768 5771 5771 5770 5770 5768 5766 5765 5763 5760 5758 5757 5756 5754 5757 5758 5763 5762 5761 5759 5760 5757
5737 5738 5741 5742 5743 5743 5748 5749 5747 5756 5751 5751 5750 5750 5749 5755 5752 5751 5750 5750 5750 5751 5752 5753 5754 5753 5753 5753 5752 5753 5753 5753 5756 5754 5751 5750 5749 5745 5742 5741 5739 5738 5740 5745 5748 5747 5749 5747 5723
5730 5731 5732 5730 5734 5739 5740 5736 5742 5744 5742 5743 5742 5738 5740 5742 5744 5743 5743 5742 5741 5740 5740 5741 5742 5742 5742 5741 5740 5737 5736 5736 5737 5737 5736 5735 5733 5731 5729 5726 5725 5724 5723 5726 5731 5732 5733 5733 5732
5727 5726 5725 5724 5723 5724 5727 5731 5731 5732 5731 5731 5733 5730 5727 5732 5732 5730 5731 5732 5731 5730 5731 5732 5732 5731 5729 5728 5727 5726 5726 5724 5722 5720 5719 5718 5716 5715 5714 5712 5710 5710 5709 5708 5707 5709 5713 5716 5717
5717 5720 5718 5717 5715 5715 5716 5719 5722 5722 5720 5721 5720 5720 5720 5719 5725 5724 5722 5720 5719 5720 5719 5719 5720 5718 5715 5714 5715 5715 5714 5714 5713 5708 5704 5698 5696 5696 5696 5696 5695 5694 5693 5693 5694 5694 5693 5696 5701
5709 5711 5710 5711 5709 5707 5707 5712 5713 5712 5711 5710 5710 5713 5712 5710 5710 5709 5708 5711 5711 5708 5706 5705 5702 5700 5700 5699 5699 5697 5696 5694 5693 5691 5688 5683 5679 5675 5674 5674 5675 5676 5676 5677 5678 5678 5678 5681 5683
5706 5704 5704 5702 5703 5701 5699 5702 5701 5698 5699 5701 5700 5697 5700 5701 5696 5697 5697 5695 5693 5691 5690 5689 5687 5688 5688 5686 5682 5677 5675 5672 5669 5670 5668 5664 5662 5657 5654 5653 5653 5655 5657 5659 5660 5661 5662 5664 5667